Location: Unspecified
(46.9021°N, 0.0000°E)
Time: 03:44:13
(UTC+00:00)

Picosat 1&2 Tethered) - Visible Passes

Search period start: 04 April 2026 00:00
Search period end: 14 April 2026 00:00
Orbit: 712 x 755 km, 100.2° (Epoch: 29 March)

Date Brightness Start Highest point End Pass type
(mag) Time Alt. Az. Time Alt. Az. Time Alt. Az.
5 Apr ? 19:47:54 10° WSW 19:48:58 11° W 19:50:02 10° WNW visible
8 Apr ? 19:04:42 10° SSW 19:08:44 26° W 19:12:49 10° NW visible
10 Apr ? 19:11:06 10° SSW 19:15:00 24° W 19:18:56 10° NW visible
12 Apr ? 19:17:31 10° SW 19:21:15 22° W 19:25:02 10° NW visible
